Weather History for Wooster, OH

Change the Weather History Date:

Wednesday, February 13, 2013

  Actual Average Record
Temperature  
Mean Temperature 27 °F -  
Max Temperature 30 °F 35 °F 45 °F (2001)
Min Temperature 24 °F 21 °F 3 °F (1997)
Degree Days  
Heating Degree Days 38    
Moisture  
Dew Point 24 °F    
Average Humidity 85    
Maximum Humidity 93    
Minimum Humidity 79    
Precipitation  
Precipitation 0.00 in - - ()
Sea Level Pressure  
Sea Level Pressure 29.83 in    
Wind  
Wind Speed 3 mph (NNW)    
Max Wind Speed 10 mph    
Max Gust Speed -    
Visibility 6 miles    
Events      
Averages and records for this station are not official NWS values.
T = Trace of Precipitation, MM = Missing Value Source: NWS Daily Summary

Daily Weather History Graph

Daily Weather History Graph

Search for Another Location

Airport:

Trip Planner

Search our weather history database for the weather conditions in past years. The results will help you decide how hot, cold, wet, or windy it might be!

Date:

Astronomy

Feb. 13, 2013 Rise Set
Actual Time 7:23 AM EST 6:00 PM EST
Civil Twilight 6:55 AM EST 6:28 PM EST
Nautical Twilight 6:23 AM EST 7:00 PM EST
Astronomical Twilight 5:51 AM EST 7:32 PM EST
Moon 8:50 AM EST (2/13) 10:03 PM EST (2/13)
Length of Visible Light 11h 32m
Length of Day
10h 36m
Waxing Crescent, 13% of the Moon is Illuminated
Feb 13
Waxing Crescent
Feb 17
First Quarter
Feb 25
Full
Mar 4
Last Quarter
Mar 11
New

Hourly Weather History & Observations

Time (EST) Temp. Windchill Dew Point Humidity Pressure Visibility Wind Dir Wind Speed Gust Speed Precip Events Conditions
12:56 AM 25.0 °F - 21.9 °F 88% 29.94 in 7.0 mi Calm Calm - N/A   Clear
1:56 AM 25.0 °F - 21.9 °F 88% 29.92 in 6.0 mi Calm Calm - N/A   Clear
2:56 AM 24.1 °F - 21.0 °F 88% 29.91 in 6.0 mi Calm Calm - N/A   Scattered Clouds
3:42 AM 24.8 °F - 21.2 °F 86% 29.87 in 5.0 mi Calm Calm - N/A   Mostly Cloudy
3:56 AM 25.0 °F - 23.0 °F 92% 29.90 in 5.0 mi Calm Calm - N/A   Overcast
4:56 AM 27.0 °F - 24.1 °F 89% 29.88 in 6.0 mi Calm Calm - N/A   Overcast
5:56 AM 25.0 °F 20.7 °F 23.0 °F 92% 29.87 in 5.0 mi North 3.5 mph - N/A   Mostly Cloudy
6:56 AM 26.1 °F - 23.0 °F 88% 29.86 in 5.0 mi Calm Calm - N/A   Partly Cloudy
7:28 AM 26.6 °F 21.2 °F 24.8 °F 93% 29.81 in 5.0 mi NNE 4.6 mph - N/A   Mostly Cloudy
7:56 AM 27.0 °F 20.5 °F 24.1 °F 89% 29.84 in 4.0 mi NNE 5.8 mph - N/A   Overcast
8:56 AM 28.0 °F 19.3 °F 25.0 °F 88% 29.82 in 4.0 mi NNE 9.2 mph - N/A   Overcast
9:12 AM 28.4 °F 19.7 °F 24.8 °F 86% 29.78 in 4.0 mi North 9.2 mph - N/A   Overcast
9:28 AM 28.4 °F 19.1 °F 24.8 °F 86% 29.79 in 5.0 mi NNE 10.4 mph - N/A   Overcast
9:56 AM 28.9 °F 22.8 °F 24.1 °F 82% 29.83 in 5.0 mi NNE 5.8 mph - N/A   Haze
10:56 AM 28.9 °F 21.1 °F 24.1 °F 82% 29.84 in 6.0 mi NNE 8.1 mph - N/A   Haze
11:41 AM 30.2 °F 26.7 °F 24.8 °F 80% 29.79 in 6.0 mi NE 3.5 mph - N/A   Haze
11:56 AM 30.0 °F 26.5 °F 24.1 °F 79% 29.82 in 6.0 mi NE 3.5 mph - N/A   Haze
12:56 PM 30.9 °F - 25.0 °F 79% 29.79 in 6.0 mi Calm Calm - N/A   Haze
1:14 PM 30.2 °F - 24.8 °F 80% 29.74 in 5.0 mi Calm Calm - N/A   Haze
1:56 PM 30.9 °F 25.2 °F 25.0 °F 79% 29.77 in 5.0 mi NW 5.8 mph - N/A   Haze
2:14 PM 30.2 °F 23.4 °F 24.8 °F 80% 29.72 in 5.0 mi NNW 6.9 mph - N/A   Haze
2:56 PM 30.9 °F 24.3 °F 25.0 °F 79% 29.77 in 6.0 mi NNW 6.9 mph - N/A   Haze
3:56 PM 30.9 °F 24.3 °F 25.0 °F 79% 29.78 in 7.0 mi NNW 6.9 mph - N/A   Overcast
4:40 PM 30.2 °F 21.3 °F 24.8 °F 80% 29.74 in 8.0 mi NNW 10.4 mph - N/A   Scattered Clouds
4:56 PM 30.0 °F 22.4 °F 24.1 °F 79% 29.78 in 7.0 mi NW 8.1 mph - N/A   Clear
5:56 PM 30.0 °F 24.1 °F 24.1 °F 79% 29.79 in 7.0 mi NNW 5.8 mph - N/A   Clear
6:56 PM 28.0 °F 24.2 °F 24.1 °F 85% 29.81 in 6.0 mi WNW 3.5 mph - N/A   Clear
7:56 PM 27.0 °F 23.0 °F 24.1 °F 89% 29.84 in 6.0 mi West 3.5 mph - N/A   Clear
8:56 PM 25.0 °F - 21.0 °F 85% 29.86 in 5.0 mi Calm Calm - N/A   Clear
9:56 PM 25.0 °F 20.7 °F 21.9 °F 88% 29.87 in 5.0 mi WSW 3.5 mph - N/A   Clear
10:56 PM 25.0 °F 20.7 °F 21.9 °F 88% 29.87 in 5.0 mi SW 3.5 mph - N/A   Clear
11:56 PM 25.0 °F 18.1 °F 21.9 °F 88% 29.88 in 4.0 mi SW 5.8 mph - N/A   Clear